BAW688 EGLL-LGSR

Flight info

Callsign BAW688
Flight time N/A
Altitude 39000
Route DET1J DET L6 DVR UL9 KONAN DCT KOK DCT SISGA DCT RITAX DCT KRH DCT KUNOD DCT GEDSO DCT VEKEN DCT MSR DCT PINDO DCT KEA UL607 GENDO L607 NETIS M601 PEXAN PEXAN1A
Aircraft A20N/M-SDGHIJ1LRWXY/SB1

Departure

Time 2026-04-30 12:12
Airport London Heathrow Airport (EGLL)

Arrival

Time N/A
Airport Santorini International Airport (LGSR)
Time Latitude Longitude Altitude Speed Heading
2026-04-30 11:45 51.47315 -0.48603 90 ft 0 kts 270°
2026-04-30 11:46 51.47187 -0.48602 90 ft 0 kts 269°
2026-04-30 12:01 51.47187 -0.48590 87 ft 4 kts 269°
2026-04-30 12:01 51.47187 -0.48552 87 ft 1 kts 269°
2026-04-30 12:01 51.47189 -0.48514 87 ft 4 kts 255°
2026-04-30 12:02 51.47200 -0.48480 88 ft 4 kts 201°
2026-04-30 12:02 51.47216 -0.48475 88 ft 0 kts 179°
2026-04-30 12:06 51.47193 -0.48475 88 ft 7 kts 180°
2026-04-30 12:06 51.47111 -0.48475 86 ft 16 kts 179°
2026-04-30 12:07 51.46998 -0.48474 86 ft 13 kts 179°
2026-04-30 12:07 51.46885 -0.48472 88 ft 19 kts 180°
2026-04-30 12:07 51.46793 -0.48472 89 ft 11 kts 179°
2026-04-30 12:07 51.46740 -0.48556 87 ft 15 kts 269°
2026-04-30 12:08 51.46734 -0.48717 87 ft 16 kts 245°
2026-04-30 12:08 51.46655 -0.48749 87 ft 8 kts 179°
2026-04-30 12:08 51.46634 -0.48750 87 ft 6 kts 184°
2026-04-30 12:08 51.46578 -0.48780 87 ft 11 kts 199°
2026-04-30 12:09 51.46532 -0.48790 87 ft 3 kts 172°
2026-04-30 12:09 51.46496 -0.48767 90 ft 7 kts 142°
2026-04-30 12:09 51.46478 -0.48680 88 ft 10 kts 94°
2026-04-30 12:09 51.46478 -0.48660 88 ft 0 kts 91°
2026-04-30 12:11 51.46477 -0.48598 88 ft 30 kts 89°
2026-04-30 12:12 51.46480 -0.47818 87 ft 105 kts 90°
2026-04-30 12:12 51.46491 -0.46421 437 ft 128 kts 86°
2026-04-30 12:12 51.46557 -0.44947 1170 ft 139 kts 85°
2026-04-30 12:12 51.46623 -0.43431 2104 ft 137 kts 87°
2026-04-30 12:13 51.46629 -0.41819 2645 ft 153 kts 101°
2026-04-30 12:13 51.46161 -0.40174 3110 ft 174 kts 124°
2026-04-30 12:13 51.45391 -0.38555 3783 ft 193 kts 128°
2026-04-30 12:13 51.44553 -0.36722 4529 ft 216 kts 123°
2026-04-30 12:14 51.43829 -0.34480 5474 ft 237 kts 115°
2026-04-30 12:14 51.43274 -0.31901 6637 ft 250 kts 109°
2026-04-30 12:14 51.42829 -0.29158 7825 ft 258 kts 106°
2026-04-30 12:14 51.42432 -0.26324 9146 ft 262 kts 104°
2026-04-30 12:15 51.42055 -0.23440 10388 ft 267 kts 104°
2026-04-30 12:15 51.41659 -0.20424 11170 ft 287 kts 104°
2026-04-30 12:15 51.41227 -0.17203 11478 ft 311 kts 104°
2026-04-30 12:15 51.41112 -0.16351 11551 ft 317 kts 104°